Location: Chrome
(40.5765°N, 74.2163°W)
Time: 16:08:38
(UTC+00:00)

Nadezhda 4 Rocket - Pass Details

Date: 06 December 2019
Orbit: 949 x 993 km, 82.9° (Epoch: 25 January)

Event Time Altitude Azimuth Distance (km) Brightness Sun altitude
Rises 22:51:55 0° 187° (S) 3,690 7.4 -15.2°
Reaches altitude 10° 22:54:25 10° 188° (S) 2,747 6.7 -15.6°
Maximum altitude 23:00:45 84° 276° (W) 1,004 4.1 -16.8°
Drops below altitude 10° 23:07:07 10° 6° (N) 2,760 6.2 -17.9°
Sets 23:09:39 0° 7° (N) 3,709 6.8 -18.4°
